User: anonymous   Login
Location: Unspecified
(0.0000°N, 0.0000°E)
Time: 01:44:16
(UTC+00:00)
Language:

Alexis - Orbit

View from above orbital plane
View from above orbital plane
View from above satellite
View from above satellite

Ground track
Ground track

The orbit data is extracted from the following two-line orbital elements,

1 22638U 93026A   23107.94447434 0.00000050  00000-0  17433-4 0    03
2 22638  69.9806  55.1228 0063000 277.8559  82.1441 14.34162528    02
Epoch (UTC): 17 April 2023 22:40:02
Eccentricity: 0.0063000
inclination: 69.9806°
perigee height: 733 km
apogee height: 823 km
right ascension of ascending node: 55.1228°
argument of perigee: 277.8559°
revolutions per day: 14.34162528
mean anomaly at epoch: 82.1441°
orbit number at epoch: 0

The dashed part of the orbit path shows where the satellite is in the earth's shadow,  

DLR